EW0183 Weather Reports


Display with metric or nautical units.
time (UTC)temp
F
wind
direction
speed
MPH
gust
MPH
rain 1hr
in
rain 24hr
in
rain mn
in
humidity
%
barometer
mb
20260906173045 93 107 2.0 7.0 0.00 0.00 0.00 64 1013.5
20260906171543 92 173 1.0 5.0 0.00 0.00 0.00 64 1013.8
20260906170042 92 123 4.0 8.0 0.00 0.00 0.00 63 1014.1
20260906164538 91 70 3.0 5.0 0.00 0.00 0.00 68 1014.2
20260906163036 90 171 2.0 5.0 0.00 0.00 0.00 66 1014.3
20260906161535 90 103 2.0 5.0 0.00 0.00 0.00 69 1014.3
20260906160034 88 159 2.0 8.0 0.00 0.00 0.00 71 1014.4
20260906154533 88 193 2.0 7.0 0.00 0.00 0.00 72 1014.2
20260906153035 87 81 1.0 5.0 0.00 0.00 0.00 75 1014.0
20260906151529 86 135 2.0 5.0 0.00 0.00 0.00 75 1014.0
20260906150025 85 90 2.0 8.0 0.00 0.00 0.00 76 1014.1
20260906144521 84 93 2.0 8.0 0.00 0.00 0.00 77 1014.1
20260906143019 83 89 0.0 6.0 0.00 0.00 0.00 78 1014.2
20260906141514 83 98 4.0 7.0 0.00 0.00 0.00 78 1014.4
20260906140017 82 113 1.0 4.0 0.00 0.00 0.00 81 1014.2
20260906134511 80 108 0.0 3.0 0.00 0.00 0.00 86 1014.3
20260906133009 77 104 0.0 0.0 0.00 0.00 0.00 94 1014.2
20260906131559 75 301 0.0 0.0 0.00 0.00 0.00 96 1014.1
20260906130056 74 301 0.0 0.0 0.00 0.00 0.00 97 1014.0
20260906124553 72 360 0.0 0.0 0.00 0.00 0.00 98 1013.8
20260906123057 71 301 0.0 0.0 0.00 0.00 0.00 97 1013.5
20260906121551 71 301 0.0 0.0 0.00 0.00 0.00 97 1013.5
20260906120052 71 301 0.0 0.0 0.00 0.00 0.00 96 1013.2
20260906114548 71 301 0.0 0.0 0.00 0.00 0.00 96 1013.2
20260906113046 71 301 0.0 0.0 0.00 0.00 0.00 96 1013.0
20260906111547 71 301 0.0 0.0 0.00 0.00 0.00 96 1013.0
20260906110051 71 301 0.0 0.0 0.00 0.00 0.00 96 1012.8
20260906104543 71 301 0.0 0.0 0.00 0.00 0.00 96 1012.8
20260906103058 71 301 0.0 0.0 0.00 0.00 0.00 96 1012.7
20260906101542 71 301 0.0 0.0 0.00 0.00 0.00 96 1012.8
20260906100041 71 301 0.0 0.0 0.00 0.00 0.00 96 1012.7
20260906094540 72 301 0.0 0.0 0.00 0.00 0.00 95 1012.7
20260906093040 72 301 0.0 0.0 0.00 0.00 0.00 95 1012.6
20260906091538 72 301 0.0 0.0 0.00 0.00 0.00 95 1012.4
20260906090054 72 301 0.0 0.0 0.00 0.00 0.00 95 1012.3
20260906084536 72 302 0.0 0.0 0.00 0.00 0.00 95 1012.2
20260906083037 73 302 0.0 0.0 0.00 0.00 0.00 95 1012.2
20260906081533 73 302 0.0 0.0 0.00 0.00 0.00 95 1012.0
20260906080032 73 360 0.0 0.0 0.00 0.00 0.00 95 1012.0
20260906074532 73 360 0.0 0.0 0.00 0.00 0.00 94 1012.1
20260906073030 73 360 0.0 0.0 0.00 0.00 0.00 94 1012.0
20260906071528 73 360 0.0 0.0 0.00 0.00 0.00 94 1012.1
20260906070035 74 302 0.0 0.0 0.00 0.00 0.00 94 1012.2
20260906064526 74 302 0.0 0.0 0.00 0.00 0.00 93 1012.3
20260906063040 74 302 0.0 0.0 0.00 0.00 0.00 93 1012.5
20260906061522 74 304 0.0 0.0 0.00 0.00 0.00 93 1012.5
20260906060022 74 304 0.0 0.0 0.00 0.00 0.00 93 1012.5
20260906054520 74 305 0.0 0.0 0.00 0.00 0.00 92 1012.5
20260906053019 74 306 0.0 0.0 0.00 0.00 0.00 92 1012.5
20260906051537 74 306 0.0 0.0 0.00 0.00 0.00 92 1012.6
20260906050018 75 306 0.0 0.0 0.00 0.00 0.00 92 1012.6
20260906044518 75 307 0.0 0.0 0.00 0.00 0.00 92 1012.4
20260906043018 75 360 0.0 0.0 0.00 0.00 0.00 92 1012.4
20260906041518 75 360 0.0 0.0 0.00 0.00 0.00 91 1012.4
20260906040030 76 360 0.0 0.0 0.00 0.00 0.00 91 1012.2
20260906034521 76 360 0.0 0.0 0.00 0.00 0.00 91 1012.1
20260906033016 77 360 0.0 0.0 0.00 0.00 0.00 90 1012.0
20260906031516 77 360 0.0 0.0 0.00 0.00 0.00 90 1011.9
20260906030016 77 360 0.0 0.0 0.00 0.00 0.00 89 1011.7
20260906024516 78 360 0.0 0.0 0.00 0.00 0.00 89 1011.5
20260906023014 78 360 0.0 0.0 0.00 0.00 0.00 89 1011.3
20260906021514 79 360 0.0 0.0 0.00 0.00 0.00 88 1011.1
20260906020018 79 360 0.0 0.0 0.00 0.00 0.00 88 1011.0
20260906014520 80 360 0.0 0.0 0.00 0.00 0.00 86 1010.7
20260906013014 81 360 0.0 0.0 0.00 0.00 0.00 86 1010.6
20260906011512 82 304 0.0 0.0 0.00 0.00 0.00 86 1010.5
20260906010012 83 301 0.0 0.0 0.00 0.00 0.00 86 1010.4
20260906004512 84 301 0.0 0.0 0.00 0.00 0.00 86 1010.4
20260906003011 85 301 0.0 0.0 0.00 0.00 0.00 84 1010.4
20260906001510 87 301 0.0 0.0 0.00 0.00 0.00 83 1010.3
20260906000011 87 301 0.0 0.0 0.00 0.00 0.00 82 1010.3
20260905234509 89 301 0.0 2.0 0.00 0.00 0.00 78 1010.3
20260905233009 91 312 1.0 3.0 0.00 0.00 0.00 72 1010.2
20260905231518 93 339 0.0 2.0 0.00 0.00 0.00 68 1010.2
20260905230008 94 107 0.0 1.0 0.00 0.00 0.00 63 1010.1
20260905224507 95 107 0.0 5.0 0.00 0.00 0.00 61 1010.2
20260905223005 97 115 1.0 4.0 0.00 0.00 0.00 53 1010.2
20260905221506 97 351 0.0 2.0 0.00 0.00 0.00 55 1010.2
20260905220004 99 186 0.0 4.0 0.00 0.00 0.00 50 1010.2
20260905214502 98 84 4.0 8.0 0.00 0.00 0.00 48 1010.5
20260905213100 98 79 2.0 7.0 0.00 0.00 0.00 49 1010.7
20260905211557 99 88 1.0 7.0 0.00 0.00 0.00 50 1010.9
20260905210106 99 34 3.0 8.0 0.00 0.00 0.00 49 1011.1
20260905204557 99 360 1.0 5.0 0.00 0.00 0.00 49 1011.3
20260905203108 98 229 0.0 4.0 0.00 0.00 0.00 50 1011.4
20260905201552 97 67 4.0 9.0 0.00 0.00 0.00 51 1011.6
20260905200056 96 207 0.0 9.0 0.00 0.00 0.00 51 1011.8
20260905194551 98 65 5.0 8.0 0.00 0.00 0.00 50 1012.1
20260905193048 98 89 1.0 4.0 0.00 0.00 0.00 52 1012.2
20260905191546 96 113 2.0 6.0 0.00 0.00 0.00 52 1012.3
20260905190044 95 240 0.0 4.0 0.00 0.00 0.00 54 1012.5
20260905184545 94 120 0.0 4.0 0.00 0.00 0.00 58 1012.5
20260905183040 94 157 0.0 5.0 0.00 0.00 0.00 59 1012.7
20260905181540 94 141 1.0 4.0 0.00 0.00 0.00 58 1012.9
20260905180040 94 103 2.0 4.0 0.00 0.00 0.00 59 1013.1
20260905174537 93 211 3.0 5.0 0.00 0.00 0.00 61 1013.4